This demonstration page uses our WeatherBlox Daily Observations layout. Learn more.

Left ArrowRight Arrow

Hourly Observations for December 15, 2016

Temp ( °F °C ) Dew Point ( °F °C ) Humidity (%) Winds ( mph kmh ) Pressure ( in mb ) Visibility ( mi km ) Precip ( " mm )
12:53 am 00:53 Clear -2 -18.9 -7 -21.7 79 79 ENE 18 30 30.22 1023 10 16 0.00 0.00
1:53 am 01:53 Clear -2 -18.9 -7 -21.7 79 79 E 18 30 30.21 1023 10 16 0.00 0.00
2:53 am 02:53 Clear -1 -18.3 -6 -21.1 79 79 E 16 26 30.18 1022 10 16 0.00 0.00
3:53 am 03:53 Partly Cloudy 1 -17.2 -4 -20 79 79 ENE 15 24 30.16 1021 10 16 0.00 0.00
4:53 am 04:53 Cloudy 4 -15.6 -2 -18.9 76 76 ENE 17 28 30.14 1021 10 16 0.00 0.00
5:53 am 05:53 Mostly Cloudy 3 -16.1 -2 -18.9 79 79 E 7 11 30.12 1020 10 16 0.00 0.00
6:53 am 06:53 Cloudy 4 -15.6 -1 -18.3 80 80 E 3 6 30.12 1020 10 16 0.00 0.00
7:53 am 07:53 Cloudy 2 -16.7 -3 -19.4 80 80 WSW 3 6 30.15 1021 10 16 0.00 0.00
8:53 am 08:53 Cloudy 2 -16.7 -3 -19.4 80 80 WSW 3 6 30.14 1021 10 16 0.00 0.00
9:53 am 09:53 Cloudy 5 -15 -1 -18.3 76 76 WSW 3 6 30.14 1021 10 16 0.00 0.00
10:53 am 10:53 Cloudy 5 -15 0 -17.8 79 79 Calm 30.14 1021 10 16 0.00 0.00
11:21 am 11:21 Cloudy with Light Snow 5 -15 0 -17.8 79 79 SSW 6 9 30.24 1024 3 4 0.00 0.03
11:53 am 11:53 Cloudy with Light Snow 4 -15.6 -1 -18.3 80 80 WSW 7 11 30.15 1021 2 2 0.01 0.25
12:03 pm 12:03 Cloudy with Light Snow 5 -15 0 -18 78 78 WSW 7 11 30.24 1024 1 2 0.00 0.00
12:53 pm 12:53 Cloudy with Light Snow 5 -15 1 -17.2 83 83 Calm 30.12 1020 1 2 0.01 0.25
1:03 pm 13:03 Cloudy with Light Snow 5 -15 1 -17 85 85 W 3 6 30.21 1023 2 2 0.00 0.00
1:27 pm 13:27 Cloudy with Light Snow 5 -15 2 -16.7 87 87 Calm 30.24 1024 1 2 0.01 0.25
1:53 pm 13:53 Cloudy with Light Snow 6 -14.4 3 -16.1 87 87 SSW 3 6 30.14 1021 1 2 0.02 0.51
2:27 pm 14:27 Cloudy with Light Snow 8 -13.3 4 -15.6 83 83 WSW 6 9 30.24 1024 2 2 0.00 0.03
2:37 pm 14:37 Cloudy with Light Snow 8 -13.3 4 -15.6 83 83 SW 7 11 30.24 1024 1 1 0.00 0.03
2:53 pm 14:53 Mostly Cloudy with Light Snow 8 -13.3 5 -15 87 87 W 5 7 30.14 1021 1 2 0.01 0.25
3:25 pm 15:25 Cloudy with Light Snow 7 -13.9 3 -16.1 84 84 WNW 10 17 30.24 1024 2 3 0.00 0.03
3:50 pm 15:50 Cloudy with Light Snow 7 -14 1 -17 78 78 NW 10 17 30.24 1024 4 6 0.00 0.00
3:53 pm 15:53 Cloudy with Light Snow 6 -14.4 2 -16.7 83 83 NW 9 15 30.16 1021 4 6 0.00 0.03
4:23 pm 16:23 Cloudy with Light Snow 5 -15 1 -17.2 83 83 NW 10 17 30.30 1026 3 4 0.00 0.03
4:35 pm 16:35 Cloudy with Light Snow 5 -15 1 -17.2 83 83 NW 13 20 30.30 1026 2 3 0.00 0.03
4:45 pm 16:45 Cloudy with Light Snow 4 -15.6 0 -17.8 83 83 NW 13 20 30.30 1026 3 5 0.00 0.03
4:53 pm 16:53 Cloudy with Light Snow 4 -15.6 -1 -18.3 80 80 NW 12 19 30.17 1022 4 6 0.00 0.03
5:06 pm 17:06 Cloudy with Light Snow 3 -16 0 -18 85 85 NW 12 19 30.30 1026 3 4 0.00 0.00
5:53 pm 17:53 Cloudy with Light Snow 3 -16.1 -2 -18.9 79 79 WNW 8 13 30.19 1023 2 3 0.00 0.03
6:53 pm 18:53 Cloudy with Light Snow 3 -16.1 -1 -18.3 83 83 WNW 6 9 30.21 1023 2 3 0.01 0.25
7:14 pm 19:14 Cloudy with Light Snow 3 -16 0 -18 85 85 WNW 8 13 30.33 1027 2 3 0.00 0.00
7:18 pm 19:18 Cloudy with Light Snow 3 -16 0 -18 85 85 NW 7 11 30.33 1027 2 3 0.00 0.00
7:35 pm 19:35 Cloudy with Light Snow 3 -16.1 -1 -18.3 83 83 WNW 8 13 30.33 1027 2 2 0.01 0.25
7:53 pm 19:53 Cloudy with Light Snow 3 -16.1 -1 -18.3 83 83 NW 7 11 30.22 1024 2 3 0.02 0.51
8:37 pm 20:37 Cloudy with Light Snow 3 -16.1 -1 -18.3 83 83 NNW 5 7 30.33 1027 3 5 0.01 0.25
8:53 pm 20:53 Cloudy with Light Snow 3 -16.1 -1 -18.3 83 83 NW 5 7 30.22 1023 4 6 0.01 0.25
9:21 pm 21:21 Cloudy with Light Snow 2 -16.7 -2 -18.9 83 83 NW 6 9 30.33 1027 5 8 0.00 0.03
9:53 pm 21:53 Cloudy 2 -16.7 -3 -19.4 80 80 NW 7 11 30.23 1024 8 13 0.00 0.03
10:14 pm 22:14 Cloudy with Light Snow 1 -17 -2 -19 85 85 NNW 5 7 30.33 1027 2 3 0.00 0.00
10:33 pm 22:33 Cloudy with Light Snow 1 -17.2 -3 -19.4 83 83 NW 5 7 30.36 1028 5 8 0.00 0.03
10:53 pm 22:53 Cloudy 1 -17.2 -3 -19.4 83 83 WNW 5 7 30.23 1024 9 14 0.00 0.03
11:10 pm 23:10 Cloudy with Light Snow 1 -17 -4 -20 78 78 W 3 6 30.33 1027 3 4 0.00 0.00
11:19 pm 23:19 Cloudy with Light Snow 1 -17.2 -3 -19.4 83 83 Calm 30.36 1028 3 4 0.00 0.03
11:31 pm 23:31 Cloudy with Light Snow 1 -17.2 -3 -19.4 83 83 Calm 30.36 1028 3 5 0.01 0.25
11:51 pm 23:51 Cloudy with Light Snow 1 -17 -2 -19 85 85 Calm 30.33 1027 3 4 0.01 0.25
11:53 pm 23:53 Cloudy with Light Snow 1 -17.2 -3 -19.4 83 83 Calm 30.24 1024 3 4 0.01 0.25

Powered by AerisWeather